EW1970 Weather Reports


time (UTC)temp
C
wind
direction
speed
KPH
gust
KPH
rain 1hr
cm
rain 24hr
cm
rain mn
cm
humidity
%
barometer
mb
20260906190023 32 360 0.0 3.2 0.00 0.00 0.00 57 1014.4
20260906184535 33 173 1.6 4.8 0.00 0.00 0.00 57 1014.3
20260906183034 32 151 1.6 3.2 0.00 0.00 0.00 62 1014.6
20260906181515 31 36 0.0 4.8 0.00 0.00 0.00 66 1014.7
20260906180003 31 76 0.0 4.8 0.00 0.00 0.00 64 1015.2
20260906174503 31 228 0.0 4.8 0.00 0.00 0.00 64 1015.4
20260906173004 33 136 1.6 6.4 0.00 0.00 0.00 63 1015.6
20260906171510 32 71 0.0 4.8 0.00 0.00 0.00 61 1015.9
20260906170018 31 274 1.6 3.2 0.00 0.00 0.00 69 1016.1
20260906164504 28 192 0.0 4.8 0.00 0.00 0.00 73 1016.2
20260906163005 28 175 0.0 4.8 0.00 0.00 0.00 76 1016.2
20260906161506 28 284 0.0 4.8 0.00 0.00 0.00 76 1016.3
20260906160013 28 182 0.0 3.2 0.00 0.00 0.00 76 1016.2
20260906154520 28 207 0.0 3.2 0.00 0.00 0.00 78 1016.1
20260906153004 27 49 0.0 1.6 0.00 0.00 0.00 80 1015.9
20260906151507 27 106 0.0 3.2 0.00 0.00 0.00 81 1015.8
20260906150011 27 133 0.0 4.8 0.00 0.00 0.00 80 1015.7
20260906144520 27 173 0.0 4.8 0.00 0.00 0.00 79 1015.6
20260906143025 27 116 1.6 3.2 0.00 0.00 0.00 80 1015.6
20260906141514 27 96 0.0 1.6 0.00 0.00 0.00 80 1015.5
20260906140010 27 123 0.0 0.0 0.00 0.00 0.00 80 1015.3
20260906134516 26 123 0.0 3.2 0.00 0.00 0.00 80 1015.2
20260906133020 26 107 0.0 3.2 0.00 0.00 0.00 81 1015.2
20260906131530 26 159 0.0 3.2 0.00 0.00 0.00 81 1014.9
20260906130007 26 192 0.0 3.2 0.00 0.00 0.00 83 1014.8
20260906124512 25 192 0.0 1.6 0.00 0.00 0.00 85 1014.4
20260906123031 25 192 0.0 0.0 0.00 0.00 0.00 86 1014.0
20260906121531 25 192 0.0 0.0 0.00 0.00 0.00 86 1013.9
20260906120031 25 192 0.0 0.0 0.00 0.00 0.00 85 1013.7
20260906114516 25 192 0.0 0.0 0.00 0.00 0.00 85 1013.5
20260906113023 25 192 0.0 0.0 0.00 0.00 0.00 84 1013.4
20260906111525 25 192 0.0 0.0 0.00 0.00 0.00 83 1013.2
20260906110027 25 192 0.0 0.0 0.00 0.00 0.00 82 1013.4
20260906104532 25 180 0.0 3.2 0.00 0.00 0.00 81 1013.3
20260906103038 26 245 0.0 3.2 0.00 0.00 0.00 80 1013.2
20260906101526 26 282 0.0 3.2 0.00 0.00 0.00 80 1012.9
20260906100029 26 173 0.0 3.2 0.00 0.00 0.00 79 1013.0
20260906094530 26 98 0.0 3.2 0.00 0.00 0.00 79 1013.1
20260906093031 26 244 0.0 3.2 0.00 0.00 0.00 78 1013.0
20260906091521 26 212 0.0 3.2 0.00 0.00 0.00 78 1012.9
20260906090028 26 238 0.0 6.4 0.00 0.00 0.00 78 1012.9
20260906084530 26 284 0.0 3.2 0.00 0.00 0.00 78 1013.0
20260906083012 27 319 0.0 4.8 0.00 0.00 0.00 77 1013.0
20260906081503 27 268 0.0 3.2 0.00 0.00 0.00 76 1013.0
20260906080002 27 284 0.0 4.8 0.00 0.00 0.00 75 1013.2
20260906074504 27 352 0.0 3.2 0.00 0.00 0.00 74 1013.3
20260906073008 27 235 0.0 3.2 0.00 0.00 0.00 73 1013.5
20260906071514 28 98 1.6 4.8 0.00 0.00 0.00 73 1013.7
20260906070003 28 225 1.6 6.4 0.00 0.00 0.00 72 1013.7
20260906064504 28 81 0.0 3.2 0.00 0.00 0.00 73 1013.8
20260906063006 28 202 0.0 9.7 0.00 0.00 0.00 73 1014.1
20260906061521 28 122 0.0 3.2 0.00 0.00 0.00 73 1014.1
20260906060021 28 140 0.0 6.4 0.00 0.00 0.00 72 1014.3
20260906054514 28 276 0.0 4.8 0.00 0.00 0.00 72 1014.1
20260906053006 28 131 0.0 4.8 0.00 0.00 0.00 72 1014.0
20260906051510 28 163 0.0 3.2 0.00 0.00 0.00 72 1014.1
20260906050021 28 171 0.0 3.2 0.00 0.00 0.00 72 1014.3
20260906044523 28 183 0.0 3.2 0.00 0.00 0.00 71 1014.3
20260906043018 28 128 0.0 3.2 0.00 0.00 0.00 71 1014.4
20260906041509 28 153 0.0 4.8 0.00 0.00 0.00 69 1014.1
20260906040019 28 198 1.6 11.3 0.00 0.00 0.00 68 1014.1
20260906034520 28 120 0.0 9.7 0.00 0.00 0.00 67 1014.2
20260906033027 29 155 1.6 9.7 0.00 0.00 0.00 65 1014.1
20260906031508 29 134 1.6 6.4 0.00 0.00 0.00 64 1013.8
20260906030013 30 183 0.0 9.7 0.00 0.00 0.00 63 1013.6
20260906024533 30 148 1.6 9.7 0.00 0.00 0.00 61 1013.4
20260906023025 30 150 0.0 8.0 0.00 0.00 0.00 60 1012.9
20260906021538 31 43 1.6 9.7 0.00 0.00 0.00 58 1012.4
20260906020013 31 40 1.6 9.7 0.00 0.00 0.00 57 1012.0
20260906014541 31 136 1.6 8.0 0.00 0.00 0.00 57 1011.9
20260906013033 31 113 1.6 12.9 0.00 0.00 0.00 55 1011.8
20260906011530 32 72 1.6 8.0 0.00 0.00 0.00 54 1011.8
20260906010030 32 91 3.2 14.5 0.00 0.00 0.00 53 1011.6
20260906004504 32 105 0.0 9.7 0.00 0.00 0.00 52 1011.6
20260906003008 33 134 1.6 9.7 0.00 0.00 0.00 51 1011.5
20260906001506 33 196 0.0 4.8 0.00 0.00 0.00 48 1011.4
20260906000004 34 101 1.6 9.7 0.00 0.00 0.00 47 1011.4
20260905234503 34 138 0.0 6.4 0.00 0.00 0.00 44 1011.2
20260905233003 35 132 0.0 3.2 0.00 0.00 0.00 43 1011.2
20260905231504 35 146 0.0 3.2 0.00 0.00 0.00 41 1011.2
20260905230005 36 68 0.0 3.2 0.00 0.00 0.00 40 1011.2
20260905224510 36 60 0.0 3.2 0.00 0.00 0.00 39 1011.2
20260905223004 35 66 0.0 3.2 0.00 0.00 0.00 41 1011.2
20260905221503 33 63 0.0 3.2 0.00 0.00 0.00 44 1011.4
20260905220003 35 315 0.0 3.2 0.00 0.00 0.00 41 1011.5
20260905214505 37 111 1.6 4.8 0.00 0.00 0.00 37 1011.5
20260905213007 37 102 1.6 3.2 0.00 0.00 0.00 37 1011.5
20260905211504 37 246 3.2 4.8 0.00 0.00 0.00 38 1011.7
20260905210007 37 317 0.0 6.4 0.00 0.00 0.00 37 1011.9
20260905204503 37 155 0.0 8.0 0.00 0.00 0.00 36 1012.2
20260905203008 37 46 1.6 6.4 0.00 0.00 0.00 38 1012.5
20260905201508 37 236 3.2 9.7 0.00 0.00 0.00 37 1012.6
20260905200008 36 103 0.0 4.8 0.00 0.00 0.00 38 1012.9
20260905194509 36 134 1.6 9.7 0.00 0.00 0.00 40 1013.1
20260905193007 37 230 1.6 4.8 0.00 0.00 0.00 38 1013.4
20260905191509 36 109 1.6 8.0 0.00 0.00 0.00 38 1013.6